RH
31 33 36 38 46 46 49 47 41 32 28 27 26 24 24 23 21 20 18 17 15 15 15 14 16 17 17 23 23 28 23 23 22 24 28 33 33 30 30 31 34 39 38 39 41 60 58
19 29 31 34 38 45 47 50 49 42 34 30 28 27 26 24 22 21 19 17 15 16 15 17 18 17 19 24 25 27 26 23 25 26 28 32 34 33 35 42 36 40 41 45 51 54 53
18 18 26 31 33 35 38 46 50 49 42 36 31 29 28 25 23 20 19 17 16 16 16 18 20 18 23 21 27 33 28 29 31 36 32 34 33 36 40 43 45 45 42 42 49 52 60
16 16 15 20 30 32 33 39 45 49 46 40 34 30 29 25 22 20 19 17 16 16 17 19 21 20 23 24 28 28 28 33 34 35 37 41 40 39 46 50 42 43 43 50 47 47 59
15 15 14 14 21 28 29 33 36 45 46 42 36 30 27 25 22 20 20 17 17 16 17 19 22 26 27 29 29 27 29 36 37 37 39 41 41 44 49 49 47 45 44 42 38 42 54
15 16 14 13 13 23 27 29 34 42 43 40 34 28 24 24 22 21 20 18 17 15 18 21 22 27 24 32 34 33 37 34 40 41 44 46 46 48 50 50 46 45 39 38 38 31 44
17 16 16 14 13 14 23 24 31 35 41 39 34 26 23 23 23 22 20 19 29 34 29 24 30 27 35 36 34 29 35 32 39 47 53 49 51 51 52 45 44 43 41 39 37 31 28
18 16 16 18 14 12 16 22 25 33 41 38 34 25 22 23 24 23 21 23 33 36 35 30 20 25 32 35 32 31 34 33 40 52 46 52 58 51 48 45 43 37 40 38 32 27 22
26 20 16 15 18 15 12 18 21 30 39 42 35 26 21 23 24 23 21 21 25 32 33 32 25 21 27 34 32 32 31 33 46 50 49 49 63 54 54 44 37 37 45 41 45 32 21
26 26 24 17 14 17 13 12 21 26 35 42 39 27 21 23 26 26 25 22 21 33 35 33 28 24 29 34 32 33 35 33 38 50 51 56 57 51 49 42 39 48 48 45 47 44 34
23 24 24 23 18 17 15 14 19 24 34 42 43 30 22 25 31 29 39 29 31 41 55 33 30 25 28 32 37 34 36 32 36 49 52 61 49 52 42 41 43 41 44 46 39 37 40
19 20 22 22 21 21 20 15 15 24 32 43 45 35 24 25 27 29 31 34 36 48 50 31 26 27 36 35 37 35 30 28 33 46 50 51 58 55 46 46 32 31 33 35 37 39 44
26 20 21 20 21 19 18 16 13 20 31 41 45 37 25 30 32 29 30 41 49 48 32 37 30 30 34 35 37 30 34 28 30 44 45 42 41 42 38 34 28 27 35 45 81 74 46
28 28 28 27 18 19 17 16 15 17 30 45 42 41 27 28 38 37 37 52 52 34 42 32 32 31 35 37 35 34 31 31 27 38 38 50 56 45 32 31 45 45 44 64 66 62 51
34 28 29 29 26 19 16 17 15 21 30 42 43 42 31 28 35 38 48 58 45 38 41 42 37 37 37 36 37 34 27 33 30 30 38 49 53 55 45 34 31 54 47 45 41 47 42
38 35 37 36 29 24 18 20 19 19 35 41 45 46 34 32 37 41 50 49 44 37 42 44 43 35 35 35 34 38 31 33 32 35 38 48 58 67 47 35 24 25 33 40 37 38 34
49 38 39 40 37 30 22 23 19 18 35 47 54 49 39 38 44 44 45 44 41 41 49 45 43 36 32 41 38 33 31 33 37 49 43 40 55 59 53 34 24 39 43 29 27 42 52
55 50 50 50 43 36 32 27 22 19 35 54 66 59 43 42 49 37 38 39 36 44 53 45 46 39 36 42 39 31 31 39 33 37 34 29 44 46 41 39 31 33 40 39 51 36 41
60 56 56 52 51 46 36 35 29 22 36 52 61 71 67 48 42 36 36 42 38 47 58 52 48 38 36 40 44 37 41 39 38 30 30 36 35 41 38 44 35 29 21 25 31 42 38
61 59 62 62 57 50 45 38 32 22 34 53 57 74 77 66 39 35 37 42 44 48 48 52 46 36 38 41 49 41 39 36 34 33 29 32 36 33 38 32 49 50 47 33 39 49 38
59 55 69 65 63 62 48 46 36 25 33 63 62 58 55 59 53 40 42 42 41 48 47 53 48 38 38 38 44 41 41 38 31 27 24 26 27 25 26 35 41 40 45 43 39 39 42
59 65 79 74 72 64 54 50 42 27 42 64 63 66 54 52 56 47 42 42 44 49 48 51 53 43 38 44 37 41 43 41 30 28 25 26 30 37 38 37 36 35 31 31 30 31 31
58 83 86 79 76 70 59 48 41 31 59 70 62 57 68 51 54 47 37 46 48 58 52 51 47 48 42 48 53 51 45 50 42 42 36 36 38 45 44 37 34 38 26 24 23 26 31
78 91 92 86 80 70 63 50 42 42 70 58 56 67 78 67 51 39 43 53 55 60 54 62 57 45 50 57 63 50 49 51 45 47 48 52 52 57 53 48 54 28 25 24 25 25 24
79 92 93 87 83 73 59 48 42 52 70 67 73 71 90 78 51 48 46 50 57 55 57 64 53 48 54 55 59 55 47 42 38 39 47 51 53 56 63 48 36 32 29 26 27 27 27
85 95 94 80 73 69 59 50 36 60 70 70 70 80 98 78 58 39 48 70 69 63 62 82 65 51 63 62 53 50 53 37 41 39 37 39 45 50 49 57 61 37 31 28 27 33 30
84 92 84 74 65 62 61 49 40 59 73 73 77 80 96 81 65 58 56 55 60 67 66 70 66 53 59 55 59 50 40 35 45 53 55 50 53 59 56 60 49 40 36 34 39 43 36
78 79 78 70 61 60 55 45 61 83 81 73 74 94 91 83 84 68 55 65 63 65 69 84 74 57 50 52 52 50 47 43 40 41 45 48 56 63 61 71 63 35 33 34 40 36 32
75 67 61 59 59 61 51 65 77 82 77 82 98 97 99 96 86 75 70 60 64 69 78 83 59 49 43 46 50 51 50 49 43 45 37 45 40 47 44 49 37 33 34 35 33 34 37